DAL104 LFPG-KATL

Flight info

Callsign DAL104
Flight time N/A
Altitude 40000
Route ELCOB UT300 SENLO DCT JSY DCT LIZAD DCT LULOX DCT LIMRI/M084F390 NATE JOOPY/N0479F400 N326A BRADD DCT BOS/N0499F430 DCT BAF Q448 PTW J48 CSN/N0481F400 J48 MOL DCT FLASK OZZZI2
Aircraft A359/H-SDE2E3GHIJ3J4J5LM1ORWXY/LB1D1

Departure

Time 2026-05-01 12:01
Airport Charles de Gaulle International Airport (LFPG)

Arrival

Time N/A
Airport Hartsfield Jackson Atlanta International Airport (KATL)
Time Latitude Longitude Altitude Speed Heading
2026-05-01 11:02 49.00160 2.56228 361 ft 0 kts 343°
2026-05-01 11:36 49.00153 2.56231 361 ft 4 kts 340°
2026-05-01 11:36 49.00130 2.56249 368 ft 4 kts 319°
2026-05-01 11:36 49.00112 2.56279 364 ft 4 kts 298°
2026-05-01 11:37 49.00102 2.56317 367 ft 4 kts 281°
2026-05-01 11:37 49.00099 2.56358 366 ft 4 kts 269°
2026-05-01 11:37 49.00100 2.56386 366 ft 0 kts 265°
2026-05-01 11:41 49.00100 2.56380 366 ft 3 kts 266°
2026-05-01 11:41 49.00095 2.56308 365 ft 11 kts 264°
2026-05-01 11:41 49.00085 2.56160 367 ft 16 kts 264°
2026-05-01 11:42 49.00075 2.55977 367 ft 18 kts 266°
2026-05-01 11:42 49.00072 2.55791 367 ft 12 kts 269°
2026-05-01 11:42 49.00056 2.55656 369 ft 14 kts 249°
2026-05-01 11:42 49.00007 2.55520 368 ft 16 kts 240°
2026-05-01 11:43 48.99977 2.55353 364 ft 17 kts 264°
2026-05-01 11:43 48.99976 2.55335 367 ft 0 kts 263°
2026-05-01 11:44 48.99976 2.55333 361 ft 1 kts 263°
2026-05-01 11:44 48.99975 2.55320 368 ft 2 kts 263°
2026-05-01 11:44 48.99973 2.55297 364 ft 5 kts 263°
2026-05-01 11:45 48.99967 2.55220 361 ft 10 kts 263°
2026-05-01 11:45 48.99964 2.55166 361 ft 0 kts 266°
2026-05-01 11:50 48.99963 2.55120 363 ft 6 kts 266°
2026-05-01 11:50 48.99959 2.55042 367 ft 9 kts 266°
2026-05-01 11:50 48.99955 2.54939 361 ft 10 kts 266°
2026-05-01 11:51 48.99945 2.54863 367 ft 5 kts 236°
2026-05-01 11:51 48.99907 2.54831 367 ft 8 kts 195°
2026-05-01 11:51 48.99843 2.54829 364 ft 11 kts 176°
2026-05-01 11:51 48.99766 2.54853 365 ft 12 kts 151°
2026-05-01 11:52 48.99715 2.54959 369 ft 13 kts 116°
2026-05-01 11:52 48.99678 2.55078 367 ft 10 kts 115°
2026-05-01 11:52 48.99676 2.55086 367 ft 0 kts 115°
2026-05-01 11:59 48.99672 2.55098 367 ft 7 kts 115°
2026-05-01 11:59 48.99647 2.55178 364 ft 9 kts 115°
2026-05-01 12:00 48.99582 2.55403 365 ft 14 kts 105°
2026-05-01 12:00 48.99582 2.55493 365 ft 0 kts 85°
2026-05-01 12:00 48.99629 2.56380 369 ft 104 kts 85°
2026-05-01 12:01 48.99708 2.57781 363 ft 159 kts 85°
2026-05-01 12:01 48.99790 2.59543 930 ft 162 kts 87°
2026-05-01 12:01 48.99870 2.61292 1438 ft 170 kts 87°
2026-05-01 12:01 48.99970 2.63187 1737 ft 194 kts 87°
2026-05-01 12:02 49.00091 2.65357 2083 ft 215 kts 86°
2026-05-01 12:02 49.00181 2.66975 2475 ft 225 kts 86°
2026-05-01 12:02 49.00315 2.69475 2879 ft 249 kts 86°
2026-05-01 12:02 49.00461 2.72178 3466 ft 261 kts 86°
2026-05-01 12:03 49.00611 2.74963 4258 ft 266 kts 87°
2026-05-01 12:03 49.00616 2.77785 5106 ft 266 kts 97°
2026-05-01 12:03 49.00376 2.80587 5968 ft 268 kts 101°
2026-05-01 12:03 49.00094 2.83407 6784 ft 271 kts 101°
2026-05-01 12:04 48.99806 2.86262 7615 ft 274 kts 101°
2026-05-01 12:04 48.99521 2.89145 8491 ft 275 kts 101°
2026-05-01 12:04 48.99234 2.91992 9396 ft 277 kts 101°
2026-05-01 12:04 48.98939 2.94898 10264 ft 279 kts 101°
2026-05-01 12:05 48.98415 2.97804 10795 ft 292 kts 116°
2026-05-01 12:05 48.95232 3.01941 11528 ft 327 kts 165°
2026-05-01 12:05 48.92936 3.02082 12198 ft 336 kts 189°
2026-05-01 12:06 48.90779 3.00663 12982 ft 345 kts 213°
2026-05-01 12:06 48.89159 2.97921 13758 ft 357 kts 237°
2026-05-01 12:06 48.88322 2.94328 14423 ft 367 kts 255°
2026-05-01 12:06 48.87841 2.90533 15074 ft 372 kts 256°
2026-05-01 12:07 48.87344 2.86662 15758 ft 375 kts 255°
2026-05-01 12:07 48.86802 2.82756 16440 ft 378 kts 254°
2026-05-01 12:07 48.86229 2.78842 17083 ft 382 kts 253°
2026-05-01 12:07 48.85635 2.74891 17770 ft 385 kts 253°
2026-05-01 12:08 48.85026 2.70906 18438 ft 389 kts 253°
2026-05-01 12:08 48.84407 2.66894 19023 ft 392 kts 253°
2026-05-01 12:08 48.83778 2.62840 19616 ft 396 kts 252°
2026-05-01 12:08 48.83139 2.58746 20220 ft 401 kts 252°
2026-05-01 12:09 48.82490 2.54603 20824 ft 405 kts 252°
2026-05-01 12:09 48.81836 2.50433 21428 ft 408 kts 252°
2026-05-01 12:09 48.81176 2.46224 22028 ft 412 kts 252°
2026-05-01 12:09 48.80692 2.41886 22607 ft 421 kts 261°
2026-05-01 12:10 48.80739 2.37414 23181 ft 430 kts 274°
2026-05-01 12:10 48.82273 2.28485 24242 ft 442 kts 284°
2026-05-01 12:10 48.83193 2.24010 24717 ft 446 kts 284°
2026-05-01 12:11 48.85021 2.14997 25706 ft 453 kts 284°
2026-05-01 12:11 48.85943 2.10408 26196 ft 456 kts 284°
2026-05-01 12:11 48.86867 2.05783 26663 ft 459 kts 284°
2026-05-01 12:12 48.87794 2.01126 27132 ft 463 kts 284°
2026-05-01 12:12 48.88728 1.96421 27594 ft 466 kts 284°
2026-05-01 12:12 48.89667 1.91679 28065 ft 470 kts 284°
2026-05-01 12:12 48.90610 1.86905 28518 ft 473 kts 283°
2026-05-01 12:13 48.91557 1.82096 28947 ft 476 kts 283°
2026-05-01 12:13 48.92510 1.77245 29384 ft 480 kts 283°
2026-05-01 12:13 48.93464 1.72376 29825 ft 483 kts 283°
2026-05-01 12:13 48.94413 1.67519 30232 ft 486 kts 283°
2026-05-01 12:14 48.95390 1.62507 30590 ft 489 kts 283°
2026-05-01 12:14 48.96346 1.57592 30949 ft 491 kts 283°
2026-05-01 12:14 48.97314 1.52602 31294 ft 494 kts 283°
2026-05-01 12:14 48.98286 1.47576 31635 ft 496 kts 283°
2026-05-01 12:15 48.99264 1.42505 31963 ft 499 kts 283°
2026-05-01 12:15 49.00241 1.37426 32289 ft 501 kts 283°
2026-05-01 12:15 49.01221 1.32320 32620 ft 503 kts 283°
2026-05-01 12:15 49.02191 1.27249 33048 ft 502 kts 284°
2026-05-01 12:16 49.02789 1.23787 33368 ft 500 kts 279°
2026-05-01 12:16 49.03392 1.16784 33748 ft 499 kts 271°
2026-05-01 12:16 49.03611 1.11554 33990 ft 501 kts 270°
2026-05-01 12:16 49.03766 1.06246 34250 ft 503 kts 269°
2026-05-01 12:17 49.03899 1.00907 34486 ft 504 kts 269°
2026-05-01 12:17 49.03984 0.97357 34700 ft 503 kts 269°
2026-05-01 12:17 49.04117 0.92049 35080 ft 500 kts 269°
2026-05-01 12:17 49.04256 0.86757 35448 ft 498 kts 270°
2026-05-01 12:18 49.04399 0.81508 35932 ft 492 kts 271°
2026-05-01 12:18 49.04543 0.76320 36335 ft 490 kts 271°
2026-05-01 12:18 49.04686 0.71131 36599 ft 489 kts 271°
2026-05-01 12:18 49.04828 0.65944 36830 ft 490 kts 270°
2026-05-01 12:19 49.04967 0.60756 37078 ft 489 kts 271°
2026-05-01 12:19 49.05104 0.55568 37353 ft 488 kts 270°
2026-05-01 12:19 49.05237 0.50402 37640 ft 487 kts 270°
2026-05-01 12:19 49.05369 0.45253 37894 ft 486 kts 270°
2026-05-01 12:20 49.05497 0.40114 38166 ft 484 kts 270°
2026-05-01 12:20 49.05623 0.34992 38459 ft 482 kts 271°
2026-05-01 12:20 49.05745 0.29897 38737 ft 481 kts 271°
2026-05-01 12:20 49.05865 0.24809 38939 ft 480 kts 270°
2026-05-01 12:21 49.05982 0.19795 39105 ft 479 kts 270°
2026-05-01 12:21 49.06097 0.14720 39247 ft 479 kts 270°
2026-05-01 12:21 49.06210 0.09637 39360 ft 479 kts 270°
2026-05-01 12:21 49.06322 0.04548 39490 ft 479 kts 271°
2026-05-01 12:22 49.06431 -0.00536 39671 ft 479 kts 270°
2026-05-01 12:22 49.06537 -0.05609 39812 ft 478 kts 270°
2026-05-01 12:22 49.06641 -0.10680 39936 ft 479 kts 270°
2026-05-01 12:22 49.06743 -0.15755 40055 ft 479 kts 270°
2026-05-01 12:23 49.06843 -0.20832 40171 ft 479 kts 270°
2026-05-01 12:23 49.06941 -0.25912 40204 ft 480 kts 270°
2026-05-01 12:23 49.07133 -0.36089 40210 ft 480 kts 270°
2026-05-01 12:24 49.07314 -0.46269 40210 ft 480 kts 270°
2026-05-01 12:24 49.07486 -0.56377 40209 ft 480 kts 270°
2026-05-01 12:25 49.07728 -0.71634 40206 ft 480 kts 270°
2026-05-01 12:26 49.07879 -0.81830 40201 ft 480 kts 270°
2026-05-01 12:26 49.08088 -0.97107 40202 ft 480 kts 270°
2026-05-01 12:27 49.08277 -1.12317 40211 ft 480 kts 270°
2026-05-01 12:28 49.09121 -1.22424 40214 ft 482 kts 281°
2026-05-01 12:28 49.09862 -1.27410 40215 ft 482 kts 282°
2026-05-01 12:29 49.12276 -1.42326 40223 ft 482 kts 282°
2026-05-01 12:29 49.14683 -1.57199 40224 ft 482 kts 282°
2026-05-01 12:30 49.17050 -1.72131 40225 ft 482 kts 282°
2026-05-01 12:31 49.18616 -1.82099 40226 ft 481 kts 281°
2026-05-01 12:31 49.20172 -1.92055 40235 ft 481 kts 281°
2026-05-01 12:32 49.21718 -2.02015 40240 ft 481 kts 281°
2026-05-01 12:32 49.24158 -2.16842 40232 ft 481 kts 283°
2026-05-01 12:33 49.25895 -2.26742 40226 ft 481 kts 282°
2026-05-01 12:33 49.27602 -2.36636 40218 ft 480 kts 282°
2026-05-01 12:34 49.29281 -2.46534 40221 ft 481 kts 282°
2026-05-01 12:34 49.30947 -2.56450 40213 ft 481 kts 282°
2026-05-01 12:35 49.32609 -2.66402 40215 ft 481 kts 282°
2026-05-01 12:35 49.34250 -2.76268 40220 ft 480 kts 281°
2026-05-01 12:36 49.35891 -2.86200 40234 ft 480 kts 281°
2026-05-01 12:36 49.37525 -2.96140 40228 ft 480 kts 281°
2026-05-01 12:37 49.39148 -3.06079 40226 ft 480 kts 281°
2026-05-01 12:37 49.40764 -3.16028 40231 ft 480 kts 281°
2026-05-01 12:38 49.42371 -3.25988 40228 ft 480 kts 281°
2026-05-01 12:38 49.43960 -3.35886 40227 ft 480 kts 281°
2026-05-01 12:39 49.45549 -3.45848 40228 ft 480 kts 281°
2026-05-01 12:39 49.47129 -3.55817 40236 ft 480 kts 280°
2026-05-01 12:40 49.48702 -3.65802 40227 ft 480 kts 280°
2026-05-01 12:40 49.50267 -3.75792 40227 ft 480 kts 280°
2026-05-01 12:41 49.51815 -3.85735 40227 ft 480 kts 280°
2026-05-01 12:41 49.53363 -3.95744 40224 ft 480 kts 280°
2026-05-01 12:42 49.54902 -4.05751 40230 ft 480 kts 279°
2026-05-01 12:42 49.56434 -4.15778 40222 ft 481 kts 279°
2026-05-01 12:43 49.57953 -4.25788 40222 ft 481 kts 279°
2026-05-01 12:43 49.59718 -4.35771 40222 ft 483 kts 285°
2026-05-01 12:44 49.61897 -4.45518 40219 ft 484 kts 286°
2026-05-01 12:45 49.66402 -4.65130 40220 ft 486 kts 285°
2026-05-01 12:45 49.68645 -4.74992 40217 ft 487 kts 285°
2026-05-01 12:46 49.70878 -4.84872 40217 ft 487 kts 285°
2026-05-01 12:46 49.73103 -4.94770 40214 ft 487 kts 285°
2026-05-01 12:47 49.75319 -5.04674 40213 ft 487 kts 285°
2026-05-01 12:47 49.77511 -5.14519 40200 ft 487 kts 285°
2026-05-01 12:48 49.79710 -5.24437 40200 ft 487 kts 285°
2026-05-01 12:48 49.81897 -5.34349 40185 ft 487 kts 285°
2026-05-01 12:49 49.84081 -5.44297 40199 ft 487 kts 285°
2026-05-01 12:49 49.86242 -5.54187 40186 ft 488 kts 285°
2026-05-01 12:50 49.88414 -5.64179 40188 ft 488 kts 285°
2026-05-01 12:50 49.90576 -5.74168 40190 ft 488 kts 284°
2026-05-01 12:51 49.92728 -5.84158 40192 ft 488 kts 284°
2026-05-01 12:52 49.95941 -5.99167 40190 ft 489 kts 284°
2026-05-01 12:52 49.99125 -6.14157 40196 ft 489 kts 284°
2026-05-01 12:53 50.02306 -6.29240 40194 ft 489 kts 284°
2026-05-01 12:54 50.04416 -6.39305 40196 ft 489 kts 284°
2026-05-01 12:54 50.07566 -6.54431 40192 ft 490 kts 284°
2026-05-01 12:55 50.10703 -6.69607 40186 ft 490 kts 284°
2026-05-01 12:56 50.12766 -6.79653 40185 ft 490 kts 284°
2026-05-01 12:56 50.14834 -6.89772 40193 ft 490 kts 284°
2026-05-01 12:57 50.16894 -6.99901 40185 ft 490 kts 284°
2026-05-01 12:57 50.19965 -7.15108 40184 ft 489 kts 283°
2026-05-01 12:58 50.22000 -7.25246 40182 ft 490 kts 283°
2026-05-01 12:59 50.25031 -7.40445 40177 ft 489 kts 283°
2026-05-01 12:59 50.28049 -7.55699 40172 ft 489 kts 283°
2026-05-01 13:00 50.31042 -7.70949 40167 ft 489 kts 283°
2026-05-01 13:01 50.34015 -7.86220 40172 ft 488 kts 283°
2026-05-01 13:02 50.37118 -8.01383 40160 ft 491 kts 289°
2026-05-01 13:07 50.65684 -9.09025 40127 ft 494 kts 289°
2026-05-01 13:08 50.68268 -9.18995 40121 ft 494 kts 289°
2026-05-01 13:08 50.70857 -9.29027 40121 ft 494 kts 289°
2026-05-01 13:09 50.73440 -9.39081 40122 ft 494 kts 289°
2026-05-01 13:09 50.76013 -9.49144 40115 ft 495 kts 289°
2026-05-01 13:10 50.78584 -9.59240 40116 ft 495 kts 289°
2026-05-01 13:10 50.81146 -9.69348 40118 ft 495 kts 289°
2026-05-01 13:11 50.83698 -9.79460 40118 ft 495 kts 289°
2026-05-01 13:11 50.86245 -9.89597 40112 ft 495 kts 289°
2026-05-01 13:12 50.88761 -9.99660 40109 ft 495 kts 289°
2026-05-01 13:12 50.91290 -10.09821 40104 ft 495 kts 289°
2026-05-01 13:13 50.93810 -10.19990 40104 ft 495 kts 289°
2026-05-01 13:13 50.96318 -10.30159 40103 ft 495 kts 289°
2026-05-01 13:14 50.98826 -10.40373 40103 ft 495 kts 289°
2026-05-01 13:14 51.01302 -10.50503 40101 ft 496 kts 289°
2026-05-01 13:15 51.03789 -10.60729 40095 ft 496 kts 289°
2026-05-01 13:15 51.06269 -10.70969 40097 ft 496 kts 288°
2026-05-01 13:16 51.08738 -10.81214 40096 ft 496 kts 288°
2026-05-01 13:16 51.11200 -10.91479 40091 ft 497 kts 288°
2026-05-01 13:17 51.16087 -11.11999 40086 ft 497 kts 289°
2026-05-01 13:18 51.19737 -11.27451 40083 ft 496 kts 288°
2026-05-01 13:18 51.22161 -11.37778 40083 ft 496 kts 288°
2026-05-01 13:19 51.24574 -11.48106 40086 ft 496 kts 288°
2026-05-01 13:20 51.28175 -11.63608 40073 ft 497 kts 288°
2026-05-01 13:20 51.30553 -11.73910 40075 ft 497 kts 288°
2026-05-01 13:21 51.34131 -11.89502 40072 ft 497 kts 288°
2026-05-01 13:21 51.36500 -11.99893 40070 ft 497 kts 288°
2026-05-01 13:22 51.38862 -12.10301 40064 ft 497 kts 288°
2026-05-01 13:22 51.41213 -12.20716 40066 ft 498 kts 288°
2026-05-01 13:23 51.43547 -12.31103 40064 ft 497 kts 288°
2026-05-01 13:23 51.45887 -12.41564 40057 ft 497 kts 288°
2026-05-01 13:24 51.48211 -12.52011 40056 ft 497 kts 288°
2026-05-01 13:25 51.51680 -12.67707 40055 ft 497 kts 288°
2026-05-01 13:25 51.53980 -12.78177 40052 ft 497 kts 288°
2026-05-01 13:26 51.56271 -12.88656 40049 ft 497 kts 288°
2026-05-01 13:26 51.58540 -12.99092 40049 ft 497 kts 288°
2026-05-01 13:27 51.60812 -13.09593 40049 ft 497 kts 287°
2026-05-01 13:27 51.64210 -13.25400 40039 ft 497 kts 288°
2026-05-01 13:28 51.67566 -13.41135 40042 ft 497 kts 288°
2026-05-01 13:29 51.72026 -13.62235 40033 ft 497 kts 287°
2026-05-01 13:31 51.78630 -13.93892 40037 ft 496 kts 288°
2026-05-01 13:32 51.84061 -14.20305 40048 ft 496 kts 288°
2026-05-01 13:33 51.89428 -14.46759 40058 ft 496 kts 288°
2026-05-01 13:34 51.93687 -14.68009 40070 ft 496 kts 288°
2026-05-01 13:35 51.96862 -14.84006 40084 ft 496 kts 288°
2026-05-01 13:36 51.99738 -15.00089 40089 ft 494 kts 278°
2026-05-01 13:36 52.00408 -15.16696 40095 ft 494 kts 272°
2026-05-01 13:37 52.00598 -15.27853 40104 ft 494 kts 271°
2026-05-01 13:37 52.00776 -15.39015 40100 ft 494 kts 272°
2026-05-01 13:38 52.01054 -15.55747 40109 ft 493 kts 272°
2026-05-01 13:39 52.01232 -15.66814 40127 ft 493 kts 272°
2026-05-01 13:39 52.01400 -15.77958 40125 ft 493 kts 271°
2026-05-01 13:40 52.01557 -15.89094 40134 ft 493 kts 272°
2026-05-01 13:40 52.01704 -16.00236 40134 ft 493 kts 272°
2026-05-01 13:41 52.01840 -16.11350 40141 ft 493 kts 272°
2026-05-01 13:41 52.01964 -16.22403 40148 ft 493 kts 272°
2026-05-01 13:42 52.02079 -16.33538 40157 ft 493 kts 272°
2026-05-01 13:42 52.02183 -16.44660 40157 ft 492 kts 272°
2026-05-01 13:43 52.02277 -16.55771 40169 ft 492 kts 272°
2026-05-01 13:43 52.02360 -16.66872 40168 ft 492 kts 272°
2026-05-01 13:44 52.02434 -16.77989 40172 ft 491 kts 272°
2026-05-01 13:44 52.02495 -16.89044 40175 ft 492 kts 273°
2026-05-01 13:45 52.02547 -17.00138 40183 ft 491 kts 273°
2026-05-01 13:45 52.02589 -17.11212 40192 ft 490 kts 273°
2026-05-01 13:46 52.02621 -17.22289 40193 ft 490 kts 272°
2026-05-01 13:46 52.02641 -17.33370 40197 ft 490 kts 272°
2026-05-01 13:47 52.02652 -17.44436 40195 ft 490 kts 271°
2026-05-01 13:47 52.02652 -17.55440 40203 ft 490 kts 272°
2026-05-01 13:48 52.02642 -17.66518 40209 ft 490 kts 271°
2026-05-01 13:48 52.02621 -17.77602 40211 ft 490 kts 272°
2026-05-01 13:49 52.02590 -17.88689 40210 ft 490 kts 272°
2026-05-01 13:49 52.02549 -17.99767 40219 ft 491 kts 271°
2026-05-01 13:50 52.02497 -18.10815 40221 ft 492 kts 271°
2026-05-01 13:50 52.02435 -18.21937 40221 ft 492 kts 272°
2026-05-01 13:51 52.02362 -18.33062 40232 ft 492 kts 271°
2026-05-01 13:51 52.02278 -18.44190 40227 ft 492 kts 271°
2026-05-01 13:52 52.02184 -18.55285 40238 ft 490 kts 271°
2026-05-01 13:52 52.02098 -18.64480 40240 ft 489 kts 271°
2026-05-01 13:53 52.01967 -18.77323 40248 ft 489 kts 271°
2026-05-01 13:53 52.01799 -18.92034 40248 ft 489 kts 271°
2026-05-01 13:54 52.01661 -19.03076 40252 ft 488 kts 271°
2026-05-01 13:54 52.01513 -19.14088 40260 ft 487 kts 271°
2026-05-01 13:55 52.01355 -19.25080 40260 ft 487 kts 271°
2026-05-01 13:55 52.01187 -19.36091 40265 ft 487 kts 271°
2026-05-01 13:56 52.01010 -19.47030 40257 ft 487 kts 271°
2026-05-01 13:56 52.00821 -19.58038 40271 ft 487 kts 271°
2026-05-01 13:57 52.00622 -19.69031 40271 ft 487 kts 271°
2026-05-01 13:57 52.00413 -19.80009 40279 ft 487 kts 271°
2026-05-01 13:58 52.00195 -19.90931 40279 ft 487 kts 270°
2026-05-01 13:58 51.99964 -20.01917 40282 ft 487 kts 270°
2026-05-01 13:59 51.99430 -20.12906 40283 ft 488 kts 266°
2026-05-01 13:59 51.98709 -20.23849 40283 ft 488 kts 266°
2026-05-01 14:00 51.98014 -20.34804 40291 ft 488 kts 266°
2026-05-01 14:00 51.97354 -20.45723 40293 ft 489 kts 266°
2026-05-01 14:01 51.96695 -20.56690 40291 ft 489 kts 266°
2026-05-01 14:01 51.96027 -20.67654 40293 ft 489 kts 266°
2026-05-01 14:02 51.95345 -20.78630 40300 ft 488 kts 266°
2026-05-01 14:02 51.94653 -20.89591 40300 ft 489 kts 266°
2026-05-01 14:03 51.93955 -21.00493 40314 ft 489 kts 266°
2026-05-01 14:03 51.93243 -21.11431 40296 ft 489 kts 266°
2026-05-01 14:04 51.92520 -21.22388 40300 ft 489 kts 266°
2026-05-01 14:04 51.91788 -21.33339 40310 ft 489 kts 266°
2026-05-01 14:05 51.91044 -21.44291 40317 ft 489 kts 266°
2026-05-01 14:05 51.90291 -21.55239 40318 ft 488 kts 266°
2026-05-01 14:06 51.89533 -21.66099 40320 ft 488 kts 266°
2026-05-01 14:06 51.88761 -21.77012 40321 ft 488 kts 266°
2026-05-01 14:07 51.87978 -21.87930 40324 ft 488 kts 265°
2026-05-01 14:08 51.86788 -22.04264 40331 ft 488 kts 265°
2026-05-01 14:08 51.85981 -22.15170 40327 ft 487 kts 265°
2026-05-01 14:09 51.85165 -22.26044 40335 ft 487 kts 265°
2026-05-01 14:09 51.84339 -22.36928 40335 ft 487 kts 265°
2026-05-01 14:10 51.83502 -22.47802 40337 ft 486 kts 265°
2026-05-01 14:10 51.82664 -22.58573 40343 ft 485 kts 265°
2026-05-01 14:11 51.81810 -22.69412 40344 ft 485 kts 265°
2026-05-01 14:11 51.80513 -22.85634 40350 ft 485 kts 265°
2026-05-01 14:12 51.79635 -22.96451 40347 ft 485 kts 265°
2026-05-01 14:12 51.78753 -23.07194 40355 ft 485 kts 265°
2026-05-01 14:13 51.78008 -23.16176 40360 ft 485 kts 265°
2026-05-01 14:13 51.76947 -23.28813 40360 ft 485 kts 265°
2026-05-01 14:14 51.76036 -23.39533 40364 ft 485 kts 264°
2026-05-01 14:14 51.75110 -23.50321 40364 ft 485 kts 264°
2026-05-01 14:15 51.74173 -23.61110 40372 ft 485 kts 264°
2026-05-01 14:15 51.73227 -23.71877 40374 ft 485 kts 264°
2026-05-01 14:16 51.72269 -23.82672 40372 ft 485 kts 264°
2026-05-01 14:16 51.71302 -23.93460 40373 ft 485 kts 264°
2026-05-01 14:17 51.70326 -24.04225 40380 ft 485 kts 264°
2026-05-01 14:17 51.69345 -24.14933 40386 ft 485 kts 264°
2026-05-01 14:18 51.68349 -24.25695 40385 ft 485 kts 264°
2026-05-01 14:18 51.67513 -24.34641 40387 ft 485 kts 264°
2026-05-01 14:19 51.66326 -24.47215 40394 ft 486 kts 264°
2026-05-01 14:19 51.65299 -24.57974 40398 ft 486 kts 264°
2026-05-01 14:20 51.63739 -24.74124 40395 ft 486 kts 263°
2026-05-01 14:21 51.62687 -24.84869 40400 ft 486 kts 263°
2026-05-01 14:21 51.61626 -24.95612 40397 ft 486 kts 263°
2026-05-01 14:22 51.60019 -25.11690 40402 ft 487 kts 263°
2026-05-01 14:22 51.58930 -25.22454 40403 ft 487 kts 263°
2026-05-01 14:23 51.57831 -25.33210 40411 ft 487 kts 263°
2026-05-01 14:23 51.56730 -25.43885 40407 ft 487 kts 263°
2026-05-01 14:24 51.55614 -25.54613 40412 ft 487 kts 263°
2026-05-01 14:24 51.54488 -25.65333 40413 ft 487 kts 263°
2026-05-01 14:25 51.53351 -25.76060 40415 ft 487 kts 263°
2026-05-01 14:25 51.52205 -25.86772 40406 ft 487 kts 263°
2026-05-01 14:26 51.50467 -26.02841 40422 ft 487 kts 263°
2026-05-01 14:27 51.49296 -26.13554 40425 ft 487 kts 263°
2026-05-01 14:27 51.48113 -26.24274 40424 ft 487 kts 263°
2026-05-01 14:28 51.46328 -26.40273 40426 ft 487 kts 263°
2026-05-01 14:28 51.45122 -26.50962 40432 ft 486 kts 263°
2026-05-01 14:29 51.43918 -26.61551 40433 ft 485 kts 263°
2026-05-01 14:30 51.41467 -26.82840 40431 ft 485 kts 263°
2026-05-01 14:31 51.39605 -26.98775 40441 ft 485 kts 263°
2026-05-01 14:31 51.38360 -27.09319 40441 ft 485 kts 263°
2026-05-01 14:32 51.37096 -27.19934 40441 ft 485 kts 262°
2026-05-01 14:32 51.35825 -27.30529 40435 ft 485 kts 262°
2026-05-01 14:33 51.34542 -27.41137 40455 ft 485 kts 262°
2026-05-01 14:33 51.33256 -27.51681 40455 ft 486 kts 262°
2026-05-01 14:34 51.31953 -27.62283 40454 ft 486 kts 262°
2026-05-01 14:34 51.30641 -27.72873 40455 ft 485 kts 262°
2026-05-01 14:35 51.29319 -27.83460 40456 ft 486 kts 262°
2026-05-01 14:35 51.27986 -27.94058 40457 ft 486 kts 262°
2026-05-01 14:36 51.26651 -28.04589 40461 ft 486 kts 262°
2026-05-01 14:36 51.25298 -28.15172 40463 ft 486 kts 262°
2026-05-01 14:37 51.23937 -28.25748 40450 ft 486 kts 262°
2026-05-01 14:37 51.22563 -28.36332 40468 ft 486 kts 261°
2026-05-01 14:38 51.21182 -28.46903 40467 ft 486 kts 261°
2026-05-01 14:38 51.19793 -28.57448 40465 ft 485 kts 261°
2026-05-01 14:39 51.18406 -28.67902 40466 ft 485 kts 261°
2026-05-01 14:39 51.17000 -28.78426 40471 ft 485 kts 261°
2026-05-01 14:40 51.15586 -28.88930 40470 ft 485 kts 261°
2026-05-01 14:40 51.14405 -28.97645 40472 ft 485 kts 261°
2026-05-01 14:41 51.12739 -29.09849 40479 ft 485 kts 261°
2026-05-01 14:41 51.11540 -29.18573 40478 ft 485 kts 261°
2026-05-01 14:42 51.10090 -29.29056 40480 ft 484 kts 260°
2026-05-01 14:42 51.08631 -29.39523 40480 ft 484 kts 260°
2026-05-01 14:43 51.07163 -29.49990 40480 ft 484 kts 260°
2026-05-01 14:43 51.05685 -29.60446 40475 ft 484 kts 260°
2026-05-01 14:44 51.04206 -29.70844 40486 ft 484 kts 259°
2026-05-01 14:44 51.01961 -29.86486 40483 ft 484 kts 259°
2026-05-01 14:45 50.99941 -30.02147 40485 ft 481 kts 266°
2026-05-01 14:46 50.99257 -30.12727 40490 ft 481 kts 267°
2026-05-01 14:46 50.98366 -30.28579 40489 ft 480 kts 267°
2026-05-01 14:47 50.97765 -30.39062 40493 ft 479 kts 267°
2026-05-01 14:48 50.96825 -30.54849 40494 ft 479 kts 267°
2026-05-01 14:48 50.95860 -30.70638 40493 ft 479 kts 266°
2026-05-01 14:49 50.94546 -30.91612 40495 ft 479 kts 266°
2026-05-01 14:50 50.93191 -31.12626 40502 ft 479 kts 266°
2026-05-01 14:51 50.92149 -31.28394 40503 ft 479 kts 266°
2026-05-01 14:52 50.91087 -31.44139 40503 ft 478 kts 265°
2026-05-01 14:53 50.90010 -31.59778 40506 ft 477 kts 265°
2026-05-01 14:53 50.89279 -31.70227 40504 ft 477 kts 265°
2026-05-01 14:54 50.88537 -31.80698 40506 ft 477 kts 265°
2026-05-01 14:54 50.87791 -31.91084 40508 ft 477 kts 265°
2026-05-01 14:55 50.87030 -32.01542 40506 ft 477 kts 265°
2026-05-01 14:55 50.86261 -32.11980 40513 ft 477 kts 265°
2026-05-01 14:56 50.85483 -32.22421 40511 ft 477 kts 264°
2026-05-01 14:56 50.84696 -32.32851 40513 ft 478 kts 264°
2026-05-01 14:57 50.83899 -32.43284 40516 ft 478 kts 264°
2026-05-01 14:57 50.82690 -32.58871 40516 ft 478 kts 264°
2026-05-01 14:58 50.81869 -32.69311 40517 ft 477 kts 263°
2026-05-01 14:58 50.81038 -32.79747 40519 ft 478 kts 263°
2026-05-01 14:59 50.80202 -32.90125 40521 ft 478 kts 263°
2026-05-01 14:59 50.79351 -33.00579 40521 ft 478 kts 263°
2026-05-01 15:00 50.78059 -33.16222 40524 ft 479 kts 263°
2026-05-01 15:01 50.77185 -33.26665 40524 ft 480 kts 262°
2026-05-01 15:01 50.76298 -33.37130 40525 ft 480 kts 262°
2026-05-01 15:02 50.75408 -33.47537 40522 ft 481 kts 262°
2026-05-01 15:02 50.74502 -33.57997 40522 ft 481 kts 262°
2026-05-01 15:03 50.73588 -33.68456 40520 ft 481 kts 262°
2026-05-01 15:03 50.72665 -33.78897 40524 ft 480 kts 261°
2026-05-01 15:04 50.71736 -33.89300 40527 ft 478 kts 261°
2026-05-01 15:04 50.70798 -33.99697 40519 ft 478 kts 261°
2026-05-01 15:05 50.69851 -34.10087 40523 ft 478 kts 261°
2026-05-01 15:05 50.68894 -34.20478 40527 ft 478 kts 261°
2026-05-01 15:06 50.67934 -34.30803 40521 ft 479 kts 261°
2026-05-01 15:06 50.66956 -34.41210 40524 ft 479 kts 261°
2026-05-01 15:07 50.65969 -34.51616 40525 ft 479 kts 261°
2026-05-01 15:07 50.64980 -34.61936 40520 ft 479 kts 261°
2026-05-01 15:08 50.63976 -34.72321 40526 ft 479 kts 260°
2026-05-01 15:08 50.62962 -34.82706 40526 ft 480 kts 260°
2026-05-01 15:09 50.61937 -34.93102 40529 ft 480 kts 260°
2026-05-01 15:09 50.60909 -35.03430 40529 ft 480 kts 259°
2026-05-01 15:10 50.59868 -35.13800 40529 ft 480 kts 259°
2026-05-01 15:10 50.58286 -35.29366 40526 ft 480 kts 259°
2026-05-01 15:11 50.56685 -35.44909 40527 ft 479 kts 259°
2026-05-01 15:12 50.55606 -35.55269 40526 ft 479 kts 259°
2026-05-01 15:12 50.53978 -35.70726 40527 ft 480 kts 259°
2026-05-01 15:14 50.51201 -35.96619 40525 ft 481 kts 258°
2026-05-01 15:14 50.49506 -36.12161 40522 ft 480 kts 258°
2026-05-01 15:15 50.47223 -36.32775 40522 ft 480 kts 258°
2026-05-01 15:16 50.44900 -36.53409 40522 ft 480 kts 258°
2026-05-01 15:18 50.41947 -36.79149 40521 ft 479 kts 257°
2026-05-01 15:19 50.39553 -36.99641 40523 ft 479 kts 257°
2026-05-01 15:19 50.37728 -37.15043 40524 ft 479 kts 257°
2026-05-01 15:20 50.35892 -37.30355 40518 ft 479 kts 257°
2026-05-01 15:21 50.34652 -37.40603 40518 ft 478 kts 257°
2026-05-01 15:21 50.33401 -37.50855 40520 ft 478 kts 257°
2026-05-01 15:22 50.31511 -37.66198 40522 ft 478 kts 257°
2026-05-01 15:22 50.30240 -37.76418 40517 ft 478 kts 257°
2026-05-01 15:23 50.28969 -37.86568 40515 ft 478 kts 257°
2026-05-01 15:23 50.27681 -37.96769 40517 ft 478 kts 257°
2026-05-01 15:24 50.26385 -38.06963 40514 ft 478 kts 257°
2026-05-01 15:24 50.25078 -38.17162 40513 ft 478 kts 257°
2026-05-01 15:25 50.23763 -38.27352 40515 ft 478 kts 256°
2026-05-01 15:25 50.22440 -38.37522 40515 ft 478 kts 256°
2026-05-01 15:26 50.21108 -38.47697 40510 ft 478 kts 256°
2026-05-01 15:26 50.19775 -38.57802 40509 ft 478 kts 256°
2026-05-01 15:27 50.18426 -38.67957 40508 ft 478 kts 256°
2026-05-01 15:28 50.16381 -38.83212 40507 ft 479 kts 256°
2026-05-01 15:28 50.15240 -38.91654 40504 ft 479 kts 256°
2026-05-01 15:29 50.13159 -39.06928 40511 ft 479 kts 256°
2026-05-01 15:30 50.10365 -39.27184 40509 ft 480 kts 256°
2026-05-01 15:31 50.06093 -39.57637 40503 ft 479 kts 256°
2026-05-01 15:32 50.03209 -39.77846 40500 ft 479 kts 255°
2026-05-01 15:34 49.99517 -40.08417 40497 ft 481 kts 263°